Stations météo

réclame
Mon MeteoGroup
Pershore, Grande-Bretagne (3529): Température de l'air & dewpoint: 18.01.2018 09:00:00 - 24.01.2018 09:00:00 (GMT)Pershore, Grande-Bretagne (3529): Vitesse du vent & gusts: 18.01.2018 09:00:00 - 24.01.2018 09:00:00 (GMT)Pershore, Grande-Bretagne (3529): Direction du vent: 18.01.2018 09:00:00 - 24.01.2018 09:00:00 (GMT)Pershore, Grande-Bretagne (3529): reduced air pressure: 18.01.2018 09:00:00 - 24.01.2018 09:00:00 (GMT)Pershore, Grande-Bretagne (3529): visibility: 18.01.2018 09:00:00 - 24.01.2018 09:00:00 (GMT)Pershore, Grande-Bretagne (3529): Quantités de précipitations: 18.01.2018 09:00:00 - 24.01.2018 09:00:00 (GMT)
Date & Time tt [°C] td [°C] ff [km/h] ff [knt] fx [km/h] fx [knt] dd ppp [hPa] vv [km] rr [mm]
24.01.2018 09:00:00 11,9 10,5 37 20 70 38 SW 1000,8 4,7 0,4
24.01.2018 08:00:00 12,5 11,3 37 20 63 34 S 999,7 10 0,0
24.01.2018 07:00:00 12,6 10,8 37 20 63 34 SSW 1000,9 14 0,0
24.01.2018 06:00:00 12,7 10,0 34 18 55 30 S 1001,9 45 0,0
24.01.2018 05:00:00 12,6 9,7 39 21 59 32 SSW 1003,9 50 0,0
24.01.2018 04:00:00 11,9 9,0 37 20 57 31 S 1004,9 23 0,0
24.01.2018 03:00:00 11,4 8,5 35 19 59 32 SSW 1006,7 18 0,0
24.01.2018 02:00:00 10,5 7,9 24 13 - - S 1007,6 16 0,0
24.01.2018 01:00:00 10,2 7,6 26 14 - - SSW 1009,0 13 0,0
24.01.2018 00:00:00 10,1 7,9 24 13 - - S 1010,7 14 0,0
23.01.2018 23:00:00 10,0 7,9 21 11 - - S 1011,5 12 0,0
23.01.2018 22:00:00 9,9 8,1 24 13 - - SSW 1012,0 11 0,0
23.01.2018 21:00:00 9,9 8,2 26 14 - - SSW 1011,9 11 0,0
23.01.2018 20:00:00 10,2 7,8 28 15 - - SSW 1011,8 14 0,0
23.01.2018 19:00:00 10,8 7,1 21 11 46 25 SW 1012,2 22 0,0
23.01.2018 18:00:00 11,5 7,3 29 16 - - SW 1011,6 24 0,0
23.01.2018 17:00:00 12,5 9,8 26 14 - - SW 1011,1 50 0,0
23.01.2018 16:00:00 11,8 10,9 26 14 - - SSW 1010,1 16 0,0
23.01.2018 15:00:00 11,8 10,2 26 14 - - SSW 1010,5 30 0,0
23.01.2018 14:00:00 12,5 9,7 21 11 - - SSW 1010,6 35 0,0
23.01.2018 13:00:00 12,9 9,1 26 14 - - SSW 1010,9 30 0,0
23.01.2018 12:00:00 12,2 10,1 26 14 46 25 SSW 1011,2 35 0,0
23.01.2018 11:00:00 12,3 10,5 29 16 48 26 SSW 1011,7 40 0,0
23.01.2018 10:00:00 11,8 10,5 28 15 - - SSW 1011,8 45 0,0
23.01.2018 09:00:00 11,3 10,4 24 13 - - SSW 1012,2 27 0,0
23.01.2018 08:00:00 10,9 9,8 18 10 - - SSW 1012,3 45 0,0
23.01.2018 07:00:00 9,4 8,8 16 9 - - S 1012,9 15 0,4
23.01.2018 06:00:00 9,2 7,7 16 9 - - S 1013,6 35 0,0
23.01.2018 05:00:00 9,1 6,6 15 8 - - S 1014,7 26 0,0
23.01.2018 04:00:00 8,7 5,9 18 10 - - SSW 1015,2 30 0,0
23.01.2018 03:00:00 8,2 6,2 21 11 - - S 1016,3 30 0,0
23.01.2018 02:00:00 7,9 6,2 18 10 - - SSW 1016,7 23 0,0
23.01.2018 01:00:00 7,0 5,7 15 8 - - SW 1016,9 18 0,0
23.01.2018 00:00:00 7,1 5,5 16 9 - - SSW 1017,6 17 0,0
22.01.2018 23:00:00 7,1 4,8 13 7 - - SW 1017,9 19 0,0
22.01.2018 22:00:00 7,6 3,9 11 6 - - SSW 1018,2 30 0,0
22.01.2018 21:00:00 7,6 4,0 9 5 - - SSW 1018,4 35 0,0
22.01.2018 20:00:00 7,4 3,5 8 4 - - WSW 1018,3 45 0,0
22.01.2018 19:00:00 7,9 3,6 9 5 - - WSW 1018,1 45 0,0
22.01.2018 18:00:00 7,6 3,0 9 5 - - WSW 1017,3 35 0,0
22.01.2018 17:00:00 8,2 3,3 9 5 - - WSW 1016,8 35 0,0
22.01.2018 16:00:00 8,5 3,6 11 6 - - WNW 1016,4 30 0,0
22.01.2018 15:00:00 8,8 3,8 22 12 - - W 1015,4 50 0,0
22.01.2018 14:00:00 9,3 4,0 22 12 - - W 1014,4 50 0,0
22.01.2018 13:00:00 9,9 4,8 24 13 - - W 1013,5 45 0,0
22.01.2018 12:00:00 9,7 5,2 28 15 - - W 1012,7 26 0,0
22.01.2018 11:00:00 8,5 5,2 13 7 - - W 1012,1 18 0,0
22.01.2018 10:00:00 8,2 5,3 15 8 - - W 1011,3 17 0,0
22.01.2018 09:00:00 6,6 4,9 5 3 - - SSW 1010,3 15 0,0
22.01.2018 08:00:00 7,0 5,0 8 4 - - SW 1009,2 16 0,0
22.01.2018 07:00:00 6,7 4,9 11 6 - - WSW 1008,8 19 0,0
22.01.2018 06:00:00 7,0 4,5 8 4 - - SSW 1008,2 19 0,0
22.01.2018 05:00:00 7,6 4,7 9 5 - - WSW 1007,8 20 0,0
22.01.2018 04:00:00 7,6 4,8 4 2 - - SW 1007,2 19 0,0
22.01.2018 03:00:00 7,2 4,8 9 5 - - SW 1007,0 19 0,0
22.01.2018 02:00:00 7,6 5,2 11 6 - - WSW 1006,6 22 0,0
22.01.2018 01:00:00 7,0 5,4 9 5 - - WNW 1007,1 17 0,0
22.01.2018 00:00:00 7,2 5,9 9 5 - - WNW 1007,2 18 0,0
21.01.2018 23:00:00 8,5 7,0 13 7 - - WNW 1006,7 23 0,0
21.01.2018 22:00:00 8,3 7,9 11 6 - - SW 1006,4 7 0,0
21.01.2018 21:00:00 9,2 8,9 18 10 - - SW 1005,4 9 0,0
21.01.2018 20:00:00 8,0 7,9 13 7 - - SW 1005,4 10 0,0
21.01.2018 19:00:00 7,8 7,6 13 7 - - SSW 1005,3 6 0,0
21.01.2018 18:00:00 7,6 7,6 11 6 - - SSW 1005,1 9 0,4
21.01.2018 17:00:00 4,3 4,1 2 1 - - NNW 1006,1 1,3 1,6
21.01.2018 16:00:00 4,2 3,8 4 2 - - SE 1006,8 8 2,0
21.01.2018 15:00:00 3,8 3,1 16 9 - - SE 1007,2 45 0,4
21.01.2018 14:00:00 3,1 2,3 15 8 - - SE 1008,9 14 0,4
21.01.2018 13:00:00 2,7 1,8 16 9 - - SE 1010,2 16 1,0
21.01.2018 12:00:00 2,6 1,8 11 6 - - SSE 1011,4 10 1,4
21.01.2018 11:00:00 2,5 1,8 13 7 - - SE 1012,5 5 2,2
21.01.2018 10:00:00 1,8 1,3 15 8 - - ESE 1012,9 9 1,0
21.01.2018 09:00:00 0,8 0,5 11 6 - - ESE 1014,0 3,0 1,0
21.01.2018 08:00:00 0,8 0,4 8 4 - - E 1014,7 2,5 1,2
21.01.2018 07:00:00 1,4 1,0 5 3 - - E 1014,6 2,7 0,0
21.01.2018 06:00:00 1,3 0,9 2 1 - - SE 1014,7 2,9 0,0
21.01.2018 05:00:00 1,4 1,1 5 3 - - SW 1014,9 3,0 0,0
21.01.2018 04:00:00 1,4 1,1 4 2 - - S 1014,7 2,2 0,0
21.01.2018 03:00:00 1,3 1,0 2 1 - - W 1014,8 2,6 0,0
21.01.2018 02:00:00 1,6 1,1 5 3 - - WSW 1014,7 2,8 0,0
21.01.2018 01:00:00 1,7 1,3 5 3 - - WSW 1014,3 3,5 0,0
21.01.2018 00:00:00 1,7 1,4 4 2 - - NNW 1013,2 3,7 0,0
20.01.2018 23:00:00 1,6 1,4 15 8 - - NNW 1012,1 3,9 0,2
20.01.2018 22:00:00 1,3 1,1 18 10 - - NNW 1010,6 2,5 0,0
20.01.2018 21:00:00 -0,2 -0,7 5 3 - - N 1009,6 1,8 0,0
20.01.2018 20:00:00 0,9 0,2 5 3 - - NW 1008,2 2,4 0,0
20.01.2018 19:00:00 2,3 1,8 8 4 - - N 1006,4 6 0,0
20.01.2018 18:00:00 2,1 1,6 8 4 - - NNW 1004,9 5 0,0
20.01.2018 17:00:00 2,1 1,6 8 4 - - N 1002,9 12 0,0
20.01.2018 16:00:00 2,2 1,7 5 3 - - NE 1001,1 13 0,4
20.01.2018 15:00:00 2,1 1,6 13 7 - - ENE 999,6 12 0,4
20.01.2018 14:00:00 2,4 2,1 9 5 - - ENE 999,4 6 0,6
20.01.2018 13:00:00 2,9 2,5 9 5 - - NNE 999,5 5 2,2
20.01.2018 12:00:00 2,9 2,6 9 5 - - ENE 999,5 3,0 0,0
20.01.2018 11:00:00 2,9 2,4 13 7 - - ENE 1000,0 9 0,2
20.01.2018 10:00:00 2,7 2,4 13 7 - - E 1000,3 7 0,6
20.01.2018 09:00:00 2,5 2,2 11 6 - - ENE 1000,9 5 1,0
20.01.2018 08:00:00 2,5 2,1 9 5 - - E 1001,2 4,0 0,8
20.01.2018 07:00:00 3,0 2,5 5 3 - - E 1001,6 5 0,6
20.01.2018 06:00:00 3,5 2,1 4 2 - - SSW 1002,0 16 0,0
20.01.2018 05:00:00 3,6 2,0 9 5 - - S 1003,0 25 0,0
20.01.2018 04:00:00 3,3 1,5 11 6 - - SSW 1003,9 20 0,0
20.01.2018 03:00:00 3,2 1,2 16 9 - - SSW 1005,0 17 0,0
20.01.2018 02:00:00 2,3 0,2 11 6 - - SSW 1006,2 23 0,0
20.01.2018 01:00:00 1,9 -0,3 8 4 - - SSW 1007,2 27 0,0
20.01.2018 00:00:00 2,2 -0,2 11 6 - - SSW 1008,1 24 0,0
19.01.2018 23:00:00 2,2 -0,3 11 6 - - SW 1008,5 29 0,0
19.01.2018 22:00:00 2,3 -0,4 13 7 - - SW 1008,9 27 0,0
19.01.2018 21:00:00 2,1 -0,9 11 6 - - SSW 1008,9 30 0,0
19.01.2018 20:00:00 2,9 -0,5 15 8 - - SW 1009,1 35 0,0
19.01.2018 19:00:00 3,9 -0,1 15 8 - - WSW 1008,9 30 0,0
19.01.2018 18:00:00 4,1 -0,3 15 8 - - W 1008,8 40 0,0
19.01.2018 17:00:00 4,6 -0,3 18 10 - - W 1008,5 30 0,0
19.01.2018 16:00:00 5,5 0,0 18 10 - - W 1008,4 40 0,0
19.01.2018 15:00:00 6,0 0,7 21 11 - - W 1008,2 45 0,0
19.01.2018 14:00:00 6,3 0,2 22 12 - - W 1008,1 30 0,0
19.01.2018 13:00:00 5,7 -0,3 22 12 - - W 1008,3 35 0,0
19.01.2018 12:00:00 5,0 -0,1 18 10 - - WSW 1008,9 35 0,0
19.01.2018 11:00:00 5,5 0,3 15 8 - - WSW 1009,2 22 0,0
19.01.2018 10:00:00 3,9 0,2 16 9 - - WSW 1008,8 29 0,0
19.01.2018 09:00:00 1,0 -1,0 11 6 - - SSW 1008,6 30 0,0
19.01.2018 08:00:00 1,6 -0,8 13 7 - - WSW 1008,3 40 0,0
19.01.2018 07:00:00 0,6 -1,1 11 6 - - SSW 1008,3 27 0,0
19.01.2018 06:00:00 1,3 -0,9 16 9 - - SSW 1008,2 40 0,0
19.01.2018 05:00:00 0,9 -1,0 8 4 - - S 1008,1 40 0,0
19.01.2018 04:00:00 1,3 -1,1 11 6 - - SW 1007,9 40 0,0
19.01.2018 03:00:00 2,0 -0,5 11 6 - - WSW 1007,7 45 0,0
19.01.2018 02:00:00 2,4 -0,1 15 8 - - SW 1007,6 35 0,0
19.01.2018 01:00:00 2,3 -0,2 13 7 - - WSW 1007,3 35 0,0
19.01.2018 00:00:00 2,2 -0,1 13 7 - - SW 1007,1 30 0,0
18.01.2018 23:00:00 0,9 -1,1 5 3 - - SSE 1006,9 50 0,0
18.01.2018 22:00:00 1,4 -0,3 9 5 - - SSE 1006,5 45 0,0
18.01.2018 21:00:00 2,6 0,1 4 2 - - W 1006,2 45 0,0
18.01.2018 20:00:00 2,3 -0,3 8 4 - - WSW 1005,5 45 0,0
18.01.2018 19:00:00 3,6 0,4 18 10 - - W 1004,9 50 0,0
18.01.2018 18:00:00 4,3 0,5 13 7 - - W 1004,1 40 0,0
18.01.2018 17:00:00 4,4 0,9 13 7 - - WNW 1003,4 50 0,0
18.01.2018 16:00:00 6,2 1,6 16 9 - - W 1002,3 40 0,0
18.01.2018 15:00:00 6,6 2,5 18 10 - - W 1002,0 45 0,0
18.01.2018 14:00:00 6,0 3,1 9 5 - - W 1002,1 40 0,0
18.01.2018 13:00:00 7,1 3,4 16 9 - - W 1002,2 30 0,0
18.01.2018 12:00:00 7,4 2,5 24 13 - - W 1002,0 40 0,0
18.01.2018 11:00:00 6,7 2,8 9 5 - - WSW 1002,2 45 0,0
18.01.2018 10:00:00 6,1 2,6 11 6 - - WSW 1001,9 40 0,0
18.01.2018 09:00:00 3,7 1,2 8 4 - - SW 1001,6 45 0,0

tt = Température de l'air
td = dewpoint
ff = Vitesse du vent
fx = gusts
dd = Direction du vent
ppp = reduced air pressure
vv = visibility
rr = Quantités de précipitations

stations d'obs. à proximité